Regional Weather Roundup
Issued by NWS Newport/Morehead, NC

Current Version | Previous Version | Text Only | Print | Product List | Glossary Off
Versions: 1 2 3 4 5 6 7 8 9 10 11 12 13 14 15 16 17 18 19 20 21 22 23 24 25 26 27 28 29 30 31 32 33 34 35 36 37 38 39 40 41 42 43 44 45 46 47 48 49 50
000 ASUS42 KMHX 251825 RWRMHX WEATHER ROUNDUP FOR EASTERN NORTH CAROLINA NATIONAL WEATHER SERVICE NEWPORT/MOREHEAD CITY NC 200 PM EDT WED MAY 25 2016 NOTE: "FAIR" INDICATES FEW OR NO CLOUDS BELOW 12,000 FEET WITH NO SIGNIFICANT WEATHER AND/OR OBSTRUCTIONS TO VISIBILITY NCZ015>017-031-032-045>047-102-103-251900- NORTH COAST CITY SKY/WX TMP DP RH WIND PRES REMARKS EDENTON SUNNY 86 58 39 SW6 30.19S ELIZABETH CITY SUNNY 86 59 39 SW8 30.17F KITTY HAWK PTCLDY 87 58 36 W5 30.18S MANTEO SUNNY 82 62 50 SW8 30.19S $$ NCZ045>047-081-094-103-104-251900- CENTRAL COAST CITY SKY/WX TMP DP RH WIND PRES REMARKS FRISCO SUNNY 77 66 68 SW8 30.22F $$ NCZ095-097-098-100-101-251900- SOUTHERN COAST CITY SKY/WX TMP DP RH WIND PRES REMARKS BEAUFORT SUNNY 78 68 71 S12 30.22F CEDAR ISLAND NOT AVBL JACKSONVILLE SUNNY 83 58 42 SE13 30.20F PINEY ISLAND NOT AVBL WILMINGTON MOSUNNY 85 56 37 CALM 30.21F $$ NCZ011>013-027>030-043-044-078>080-089-090>093-098-251900- COASTAL PLAIN CITY SKY/WX TMP DP RH WIND PRES REMARKS AHOSKIE MOSUNNY 85 56 37 S5 30.18S CLINTON SUNNY 86 57 36 CALM 30.20F ELIZABETHTOWN MOSUNNY 86 53 33 CALM 30.20F GOLDSBORO MOSUNNY 86 51 29 S7 30.18F GREENVILLE MOSUNNY 86 55 35 W9 30.20S HAVELOCK MOSUNNY 85 57 38 S8 30.21F KENANSVILLE PTSUNNY 85 52 31 CALM 30.21F KINSTON SUNNY 88 52 29 S3 30.20F NEW BERN MOSUNNY 86 55 34 SW5 30.21F RICHLANDS MOSUNNY 85 55 35 VRB3 30.21F ROCKY MOUNT MOSUNNY 87 55 33 S10 30.19F WASHINGTON MOSUNNY 86 59 40 W7 30.19S WHITEVILLE PTSUNNY 84 55 36 CALM 30.20F $$ AMZ130-135-150-152-154-156-158-170-250-252-270-ANZ085-086-088-633-658-670-251900- MARINE OBSERVATIONS STATION/POSITION TIME TEMP WIND PRES WAVE SWELL AIR SEA DIR/SP/G HT/PER HT/PER (UTC) (F) (DEG/KT/KT) (MB) (FT/S) (FT/S) CHESAPEAKE LIGHT 1800 74 CALM 1022.5 64 E VA BEACH 1750 62 60 210/ 4/ 4 1022.0 2/ 9 2/ 9 DUCK 1800 79 60 230/ 11/ 14 1021.5 2 E DUCK 1711 63 N/A 2/ 9 OREGON INLET 1800 75 70 180/ 11/ 13 1022.4 13E OREGON INLT 1800 67 N/A 3/ 5 2/ 5 HATTERAS CG 1800 73 69 210/ 7/ 11 1023.0 DIAMOND BUOY 1750 70 70 240/ 8/ 10 1023.5 3/ 8 2/ 8 CAPE LOOKOUT 1800 77 210/ 6/ 8 1023.2 BEAUFORT LAB 1800 74 69 190/ 10/ 11 1022.5 30 SE NEW RVR IN 1725 74 N/A 2/ 9 27 SE WRIGHTSVLE 1808 75 74 240/ 8/ 10 1023.1 5 SE WRIGHTSVLE 1808 74 73 200/ 12/ 16 1024.2 225 S CAPE HAT 1750 74 79 60/ 8/ 10 1024.2 3/ 8 3/ 8 41 SE CHARLESTON 1750 78 79 280/ 2/ 4 1024.1 2/ 8 2/ 8 $$

USA.gov is the U.S. government's official web portal to all federal, state and local government web resources and services.